Hourly Data Report for October 03, 2019

All times are specified in Local Standard Time (LST). Add 1 hour to adjust for Daylight Saving Time where and when it is observed.

WOODSTOCK NEWBRIDGE
NEW BRUNSWICK
Current Station Operator: ECCC - MSC

46°09'08.000" N
67°32'34.000" W
154.00 m
8105603
71606
EWD

Download Data

Hourly Data (October 2019)
Hourly Data Report for October 3, 2019
TIME Temp Definition
°C
Dew Point Definition
°C
Rel Hum Definition
%
Wind Dir Definition
10's deg

Wind Spd Definition
km/h
Visibility Definition
km
Stn Press Definition
kPa
Hmdx Definition


Wind Chill Definition


Weather Definition


00:00 3.4 -1.2 72 29 8   100.04     LegendNANA
01:00 2.5 -1.7 74 27 8   100.10     LegendNANA
02:00 2.5 -0.6 80 29 6   100.12     LegendNANA
03:00 2.5 -0.2 82 28 5   100.13     LegendNANA
04:00 2.7 -0.3 81 29 6   100.15     LegendNANA
05:00 2.9 -1.4 74 29 6   100.17     LegendNANA
06:00 -0.1 -2.3 85 27 4   100.24   -1 LegendNANA
07:00 0.1 -2.0 85 28 7   100.32     LegendNANA
08:00 2.4 -2.0 73 29 5   100.36     LegendNANA
09:00 4.4 -1.5 66 28 9   100.47     LegendNANA
10:00 5.9 -1.3 60 31 9   100.46     LegendNANA
11:00 7.0 -1.4 55 33 8   100.45     LegendNANA
12:00 7.7 -2.6 48 32 9   100.36     LegendNANA
13:00 9.1 -2.4 44 31 7   100.28     LegendNANA
14:00 8.7 -2.9 44 29 6   100.25     LegendNANA
15:00 9.3 -2.4 44 28 6   100.19     LegendNANA
16:00 9.1 -2.3 45 28 5   100.14     LegendNANA
17:00 9.3 -1.4 47 20 2   100.13     LegendNANA
18:00 6.3 2.0 74 0 1   100.09     LegendNANA
19:00 4.2 2.5 89   0   100.07     LegendNANA
20:00 4.0 1.7 85 14 3   100.08     LegendNANA
21:00 4.0 2.5 90 10 1   100.02     LegendNANA
22:00 4.3 2.9 91 7 1   100.00     LegendNANA
23:00 4.1 3.0 93   0   99.96     LegendNANA

Notes on Data Quality.

Legend

  • E = Estimated
  • M = Missing
  • NA = Not Available
Date modified: